EW8461 Weather Reports


time (UTC)temp
C
wind
direction
speed
KPH
gust
KPH
rain 1hr
cm
rain 24hr
cm
rain mn
cm
humidity
%
barometer
mb
20260506134515 12 360 0.0 0.0 0.00 0.00 0.00 89 1020.1
20260506133018 12 360 0.0 0.0 0.00 0.00 0.00 90 1020.0
20260506131516 12 360 0.0 0.0 0.00 0.00 0.00 90 1020.0
20260506130018 12 360 0.0 0.0 0.00 0.00 0.00 90 1020.0
20260506124517 12 360 0.0 0.0 0.00 0.00 0.00 91 1020.0
20260506123017 13 360 0.0 0.0 0.00 0.00 0.00 91 1019.9
20260506121515 12 360 0.0 0.0 0.00 0.00 0.00 91 1019.8
20260506120014 12 360 0.0 0.0 0.00 0.00 0.00 91 1019.6
20260506114521 12 360 0.0 0.0 0.00 0.00 0.00 91 1019.5
20260506113020 12 360 0.0 0.0 0.00 0.00 0.00 91 1019.4
20260506111519 12 360 0.0 0.0 0.00 0.00 0.00 91 1019.1
20260506110018 13 360 0.0 0.0 0.00 0.00 0.00 91 1018.7
20260506104518 13 360 0.0 0.0 0.00 0.00 0.00 91 1018.6
20260506103020 13 360 0.0 0.0 0.00 0.00 0.00 90 1018.4
20260506101535 13 360 0.0 0.0 0.00 0.00 0.00 90 1018.2
20260506100019 13 360 0.0 0.0 0.00 0.00 0.00 90 1018.2
20260506094520 13 360 0.0 0.0 0.00 0.00 0.00 90 1018.1
20260506093016 13 360 0.0 0.0 0.00 0.00 0.00 89 1018.0
20260506091522 13 360 0.0 0.0 0.00 0.00 0.00 89 1018.0
20260506090022 13 360 0.0 0.0 0.00 0.00 0.00 89 1018.0
20260506084528 13 360 0.0 0.0 0.00 0.00 0.00 89 1017.9
20260506083023 13 360 0.0 0.0 0.00 0.00 0.00 89 1017.9
20260506081520 13 360 0.0 0.0 0.00 0.00 0.00 89 1017.9
20260506073024 13 360 0.0 0.0 0.00 0.00 0.00 89 1017.8
20260506071517 13 360 0.0 0.0 0.00 0.00 0.00 89 1017.7
20260506061512 13 360 0.0 0.0 0.00 0.00 0.00 88 1017.5
20260506044524 13 360 0.0 0.0 0.00 0.00 0.00 88 1016.8
20260506043025 13 360 0.0 0.0 0.00 0.00 0.00 87 1016.6
20260506041513 13 360 0.0 0.0 0.00 0.00 0.00 86 1016.5
20260506040014 13 360 0.0 1.6 0.00 0.00 0.00 85 1016.5
20260506034518 14 360 0.0 0.0 0.00 0.00 0.00 82 1016.3
20260506033027 15 360 0.0 0.0 0.00 0.00 0.00 81 1016.0
20260506031528 16 360 0.0 0.0 0.00 0.00 0.00 78 1016.0
20260506030011 16 360 0.0 0.0 0.00 0.00 0.00 78 1015.8
20260506024516 16 360 0.0 1.6 0.00 0.00 0.00 77 1015.8
20260506023018 16 360 0.0 0.0 0.00 0.00 0.00 76 1015.8
20260506021524 16 360 0.0 0.0 0.00 0.00 0.00 76 1015.7
20260506020026 16 360 0.0 1.6 0.00 0.00 0.00 75 1015.8
20260506014517 16 360 0.0 3.2 0.00 0.00 0.00 75 1015.7
20260506013024 17 360 0.0 1.6 0.00 0.00 0.00 73 1015.7
20260506011521 17 360 0.0 1.6 0.00 0.00 0.00 74 1015.7
20260506010027 17 360 0.0 1.6 0.00 0.00 0.00 75 1015.7
20260506004537 17 360 0.0 3.2 0.00 0.00 0.00 74 1015.7
20260506003012 17 360 0.0 1.6 0.00 0.00 0.00 73 1015.8
20260506001516 17 360 0.0 3.2 0.00 0.00 0.00 74 1015.7
20260506000023 17 360 0.0 4.8 0.00 0.00 0.00 73 1015.9
20260505234524 17 360 0.0 3.2 0.00 0.00 0.00 74 1016.0
20260505233027 16 360 0.0 3.2 0.00 0.00 0.00 75 1016.0
20260505231514 16 360 0.0 3.2 0.00 0.00 0.00 75 1016.0
20260505230020 16 360 0.0 3.2 0.00 0.00 0.00 76 1016.2
20260505224535 16 360 0.0 3.2 0.00 0.00 0.00 73 1016.3
20260505223039 16 360 0.0 3.2 0.00 0.00 0.00 74 1016.3
20260505220027 16 360 0.0 1.6 0.00 0.00 0.00 76 1016.4
20260505214536 16 360 0.0 3.2 0.00 0.00 0.00 74 1016.4
20260505213043 16 360 0.0 3.2 0.00 0.00 0.00 76 1016.5
20260505211526 16 360 0.0 6.4 0.00 0.00 0.00 75 1016.5
20260505210031 17 360 0.0 3.2 0.00 0.00 0.00 75 1016.5
20260505204524 17 360 1.6 4.8 0.00 0.00 0.00 73 1016.5
20260505203022 17 360 1.6 3.2 0.00 0.00 0.00 75 1016.6
20260505201542 16 360 0.0 3.2 0.00 0.00 0.00 75 1016.8
20260505200030 16 360 0.0 3.2 0.00 0.00 0.00 80 1016.9
20260505194527 15 360 0.0 3.2 0.00 0.00 0.00 80 1017.0
20260505193038 15 360 0.0 3.2 0.00 0.00 0.00 81 1017.0
20260505191523 15 360 1.6 3.2 0.00 0.00 0.00 81 1017.0
20260505190032 15 360 1.6 3.2 0.00 0.00 0.00 81 1017.1
20260505184527 13 5 0.0 3.2 0.00 0.00 0.00 82 1017.1
20260505183027 13 360 1.6 3.2 0.00 0.00 0.00 86 1017.1
20260505181524 13 360 0.0 3.2 0.00 0.00 0.00 88 1017.2
20260505180003 13 360 0.0 3.2 0.00 0.00 0.00 88 1017.1
20260505174508 13 360 0.0 3.2 0.00 0.00 0.00 89 1017.1
20260505173014 12 360 0.0 3.2 0.00 0.00 0.00 88 1017.0
20260505171528 12 360 0.0 3.2 0.00 0.00 0.00 89 1016.9
20260505170021 12 360 0.0 3.2 0.00 0.00 0.00 90 1016.8
20260505164516 12 360 0.0 1.6 0.00 0.00 0.00 91 1016.6
20260505163016 12 360 0.0 1.6 0.00 0.00 0.00 92 1016.5
20260505161516 12 360 0.0 1.6 0.00 0.00 0.00 92 1016.5
20260505153008 11 360 0.0 1.6 0.00 0.00 0.00 92 1016.4
20260505151513 11 360 0.0 1.6 0.00 0.00 0.00 92 1016.4